GFSNIL_prec_cloud_003.txt.gz
Cloud_Cover
6 31 42 88 63 81 87 10 5 5 5 38 77 99 100 100 77 36 79 0 0 0
8 50 91 94 25 0 0 3 7 98 95 100 100 96 100 98 100 38 25 10 3 0
5 5 5 4 0 1 4 100 93 13 82 100 87 100 100 100 99 26 100 100 94 8
8 2 3 3 1 0 6 99 79 82 72 93 100 100 100 100 100 100 100 66 10 5
5 4 3 0 0 1 97 98 76 100 82 100 100 89 100 100 100 100 98 14 5 6
1 2 0 0 0 0 16 34 77 79 50 13 99 100 100 100 100 96 6 5 5 5
2 0 0 0 0 3 4 35 5 5 5 40 81 100 100 68 1 5 5 5 0 2
5 5 3 0 1 5 94 36 5 24 14 87 72 24 4 3 4 5 4 5 5 14
5 5 0 0 5 93 100 84 5 5 82 99 5 5 5 3 5 5 66 100 75 78
7 5 1 1 5 66 97 100 30 87 5 41 77 87 5 5 57 99 96 96 100 89
5 4 0 3 5 5 67 99 29 5 70 95 100 5 5 33 5 6 28 30 7 5
0 0 0 4 15 36 7 5 5 95 100 100 16 5 6 5 27 6 5 5 5 93
1 0 2 5 5 93 100 98 83 100 93 20 5 5 5 26 74 5 28 5 5 60
5 1 3 5 40 95 96 65 38 96 18 5 2 5 5 63 11 41 90 76 56 71

GFSNIL_prec_cloud_006.txt.gz
Cloud_Cover
0 2 3 1 4 6 55 37 5 2 5 5 5 13 79 100 100 86 32 89 69 69
5 5 5 5 24 16 5 5 5 4 5 80 5 96 96 83 62 74 93 96 48 29
41 5 5 5 5 5 4 0 5 22 84 68 96 99 96 17 100 81 14 17 74 85
1 0 5 5 5 4 0 0 16 88 72 32 27 6 4 5 5 5 18 10 5 20
4 5 5 5 5 2 4 5 86 28 79 5 4 5 5 3 19 5 5 5 0 0
5 5 5 5 2 5 5 6 79 100 45 5 14 5 5 5 0 0 0 0 1 5
5 5 5 5 5 5 3 64 93 97 16 10 24 6 8 5 0 0 0 2 5 5
5 5 5 5 5 5 5 7 99 4 5 4 22 100 44 5 0 0 4 5 5 60
10 6 17 35 5 5 99 99 36 5 5 94 100 68 5 5 5 5 5 73 89 9
36 95 73 19 3 5 32 37 54 88 100 100 50 5 53 24 5 5 6 5 5 5
84 100 44 1 0 5 5 5 5 6 8 17 9 36 5 5 5 5 5 5 5 5
68 65 4 0 2 5 18 99 99 99 97 100 17 5 5 5 5 5 5 8 5 83
47 5 5 4 5 8 94 89 71 18 5 5 5 2 3 5 5 26 8 8 22 28
5 5 30 6 5 5 5 5 5 39 5 24 5 0 3 5 5 17 80 52 40 39

GFSNIL_prec_cloud_009.txt.gz
Cloud_Cover
5 44 68 5 1 2 4 5 5 6 28 42 22 7 99 86 5 5 33 2 1 1
73 67 45 5 5 5 5 6 53 87 13 8 99 46 85 82 0 0 0 5 5 0
96 74 2 5 5 6 59 58 12 5 10 100 70 17 2 0 2 0 3 1 0 0
12 5 5 20 31 7 47 5 5 9 97 76 8 92 3 5 5 0 0 0 0 0
6 21 58 32 5 5 0 5 5 33 100 99 99 89 48 71 5 3 0 0 0 4
39 7 5 5 5 5 2 5 5 21 79 100 86 96 97 67 10 5 5 0 5 5
5 5 5 5 5 30 47 29 25 10 100 100 97 75 11 43 5 5 5 5 5 5
5 48 17 46 98 100 84 55 5 100 80 39 99 64 95 85 5 5 9 5 5 5
52 70 100 100 100 99 92 5 36 5 87 100 100 100 98 14 60 34 0 0 1 5
100 100 100 100 100 87 7 5 5 5 5 17 20 20 97 60 3 0 0 2 5 6
100 100 100 87 38 2 0 2 5 5 5 5 5 55 4 3 0 0 5 5 15 86
100 100 86 10 0 0 4 5 5 5 5 5 5 5 5 0 4 5 5 9 90 100
100 69 5 5 5 5 3 4 5 5 5 5 5 5 5 2 5 5 7 5 18 100
20 68 5 4 5 5 5 5 5 5 5 5 5 5 3 5 11 48 43 5 5 66

GFSNIL_prec_cloud_015.txt.gz
Cloud_Cover
6 87 100 100 16 5 5 5 5 5 2 5 89 98 87 30 42 69 100 95 58 86
100 100 100 63 10 5 5 5 5 5 5 93 100 92 58 95 82 73 97 69 88 95
91 98 100 30 5 5 5 5 5 8 98 95 100 59 24 54 85 94 100 99 96 99
92 99 34 67 30 5 37 10 5 38 99 100 58 76 85 98 94 84 100 57 78 94
100 100 100 59 9 68 44 5 5 95 100 97 74 6 84 97 98 85 99 100 94 73
100 98 55 17 63 92 20 60 100 100 69 38 24 31 60 60 95 97 100 96 79 94
100 59 35 83 70 23 94 100 100 85 83 61 100 90 100 100 97 99 99 99 100 100
86 95 100 70 73 99 100 100 100 97 74 62 100 65 5 25 83 98 100 99 100 18
100 100 100 96 100 100 100 98 82 95 99 100 89 5 5 0 2 23 22 18 5 5
100 100 100 100 100 100 80 44 12 100 99 32 98 5 0 0 0 5 10 6 5 5
100 100 100 100 100 88 68 47 97 100 98 98 68 4 0 5 2 5 27 5 5 5
100 100 100 100 100 100 96 100 100 100 100 100 89 5 0 2 4 57 52 58 53 8
100 100 100 100 100 100 100 100 100 100 92 5 5 5 0 1 5 44 77 70 73 68
100 100 100 100 100 100 100 100 100 100 100 14 7 48 4 5 5 49 23 5 46 100

GFSNIL_prec_cloud_021.txt.gz
Cloud_Cover
80 73 100 100 100 75 32 5 5 42 39 5 0 5 5 5 5 5 5 5 5 5
100 100 100 100 91 58 64 65 5 5 5 5 5 2 5 5 5 5 5 9 24 69
100 99 100 98 91 100 77 100 5 56 5 5 25 36 9 5 5 8 66 57 96 100
82 98 84 89 81 73 100 84 73 50 14 92 100 84 66 5 17 58 74 86 100 100
8 80 100 100 98 100 94 91 60 31 73 40 100 100 100 81 56 79 100 96 100 96
96 100 100 100 100 91 74 93 85 92 89 51 90 100 95 100 100 100 100 100 100 90
98 94 100 79 94 81 35 97 84 95 100 100 100 100 100 100 100 100 100 100 100 100
71 80 84 89 98 58 82 73 100 100 96 98 100 100 100 100 100 100 100 100 78 39
58 70 97 96 93 100 90 100 100 100 100 100 100 100 100 100 100 100 94 100 82 4
16 89 99 99 100 100 100 100 100 100 100 100 100 100 100 100 96 100 100 56 85 4
100 93 100 100 100 100 100 100 100 100 100 100 100 100 97 100 100 94 44 5 11 5
99 87 100 100 100 100 100 100 100 100 100 100 100 100 100 98 85 6 85 61 1 4
77 100 100 100 100 100 100 100 100 100 100 100 100 100 58 53 79 95 61 1 4 4
100 100 100 100 100 100 99 100 100 100 100 100 100 100 100 100 97 5 5 5 5 5

GFSNIL_prec_cloud_024.txt.gz
Cloud_Cover
94 77 87 79 95 97 100 100 94 100 52 97 5 5 45 5 5 5 5 5 5 68
100 100 100 100 96 100 100 100 99 64 35 95 52 8 5 5 5 5 14 6 92 100
100 100 100 96 100 100 100 98 72 89 78 83 6 99 60 61 34 5 17 100 74 10
100 100 100 100 100 99 89 86 100 46 85 51 90 100 50 70 60 92 100 74 92 65
5 10 74 92 77 93 75 83 99 84 85 5 72 100 99 65 10 26 17 81 86 99
5 5 26 6 5 5 22 23 5 5 15 80 100 98 99 97 85 100 100 100 100 100
47 54 8 5 5 5 5 5 5 73 100 99 94 66 95 64 84 97 100 100 100 97
81 53 25 14 15 5 35 94 95 99 100 62 79 100 100 100 100 100 100 100 100 100
100 99 94 97 94 72 74 100 100 98 57 99 99 100 100 100 100 100 100 93 20 5
26 35 70 48 68 89 100 100 100 98 98 92 100 100 100 100 100 99 77 5 5 5
45 84 94 91 98 100 100 100 89 98 100 100 100 100 100 100 100 100 100 7 5 5
100 100 100 100 100 100 100 100 100 100 100 100 100 100 100 100 94 74 6 10 5 2
100 100 100 100 100 100 54 100 100 100 100 100 100 70 35 5 28 70 5 5 4 0
100 100 100 100 100 98 98 89 100 100 91 8 5 5 5 47 18 60 5 5 5 5

GFSNIL_prec_cloud_027.txt.gz
Cloud_Cover
32 6 100 92 94 35 79 100 100 100 100 100 6 98 20 94 100 16 84 74 5 5
4 5 62 100 100 100 100 100 100 100 100 100 92 93 6 91 95 89 52 46 13 56
25 100 100 94 99 86 100 100 100 90 100 100 73 89 93 80 76 5 47 74 59 98
5 23 19 55 80 100 100 100 89 100 100 100 100 86 99 100 97 96 24 49 98 24
57 43 93 100 100 100 100 100 91 27 64 73 90 100 100 31 5 5 5 5 40 96
49 69 91 100 44 5 5 8 38 29 99 99 94 72 5 42 38 26 9 37 76 100
15 72 100 100 100 95 95 49 68 12 45 100 66 5 5 5 5 5 21 58 97 100
84 100 100 100 100 100 94 82 98 100 100 100 55 30 46 5 8 89 98 100 100 100
100 100 100 100 100 100 100 100 100 100 100 100 92 99 93 42 95 99 100 100 67 12
100 100 100 100 100 100 100 99 100 100 95 84 100 100 97 93 91 97 68 89 5 5
100 100 100 100 100 100 100 100 100 100 100 100 100 84 91 52 25 5 52 50 5 5
100 100 100 100 100 100 100 100 100 100 100 78 94 81 7 2 5 5 5 5 5 5
100 100 100 100 100 100 100 100 100 100 78 63 23 31 5 3 5 5 5 5 5 5
100 100 100 100 100 100 100 100 100 85 46 98 89 5 4 5 5 69 97 98 5 5

GFSNIL_prec_cloud_030.txt.gz
Cloud_Cover
71 100 98 100 6 60 99 70 83 100 100 98 100 71 5 32 8 64 46 5 5 5
100 42 24 51 4 10 94 100 15 85 99 100 100 100 84 68 99 93 5 5 4 4
4 0 20 28 98 99 58 64 98 96 100 100 100 99 72 98 61 5 4 0 1 30
2 5 35 71 63 63 100 100 100 100 100 100 97 81 84 93 25 5 32 75 99 20
57 6 5 29 82 94 100 100 100 100 100 100 100 94 100 82 75 92 82 52 12 5
69 5 5 44 100 100 100 100 100 100 100 100 100 97 100 99 100 100 90 60 6 5
5 46 22 87 100 100 100 100 100 100 100 100 100 100 96 89 100 100 65 6 5 5
16 59 6 55 100 100 100 100 100 100 100 100 100 100 99 80 98 34 17 5 5 81
23 9 56 83 99 100 100 92 77 100 100 100 100 100 100 86 43 64 5 5 6 97
52 92 100 100 96 100 100 100 100 99 100 100 100 100 100 88 10 5 5 5 26 100
60 100 100 100 100 100 100 100 100 100 100 82 100 100 92 53 54 25 5 5 22 85
95 100 100 100 100 100 100 100 100 100 100 100 100 87 99 100 98 11 10 5 51 70
88 94 99 100 100 100 100 100 100 100 100 100 100 100 100 100 79 50 8 5 85 100
76 95 94 97 100 100 100 96 100 51 81 100 100 100 100 100 96 26 5 81 100 100

GFSNIL_prec_cloud_033.txt.gz
Cloud_Cover
100 100 100 100 100 100 99 33 29 56 97 89 97 100 48 99 5 5 5 5 5 5
100 100 100 85 37 97 76 91 99 95 99 66 33 96 99 25 15 5 9 5 5 5
100 100 82 100 99 30 100 93 82 71 90 96 86 25 89 88 17 81 96 56 5 5
35 41 86 98 87 99 90 74 73 98 88 72 100 98 70 74 99 100 82 71 41 5
100 100 100 100 90 100 77 62 62 100 100 100 80 99 92 100 100 97 100 100 75 28
78 92 97 41 95 98 14 78 16 99 63 15 72 96 94 100 100 100 100 91 79 67
37 51 80 81 35 70 64 66 91 94 37 98 100 98 100 100 100 87 94 100 100 100
0 48 8 5 32 100 100 100 100 48 38 100 100 100 100 100 98 99 100 100 100 100
8 59 100 100 100 100 100 100 100 100 100 100 100 100 100 100 100 100 100 100 100 100
7 64 100 100 100 100 100 100 100 100 100 100 100 100 100 100 100 100 100 100 99 76
99 100 97 100 100 100 92 96 100 100 100 100 100 100 100 100 100 83 100 92 93 83
100 72 100 100 100 100 100 100 100 100 100 100 100 100 100 81 97 100 93 90 60 27
50 98 97 55 99 81 100 100 100 100 100 100 97 99 99 100 50 83 32 64 83 12
85 86 100 100 99 100 94 94 69 98 89 50 59 78 98 75 67 83 31 19 5 3

GFSNIL_prec_cloud_036.txt.gz
Cloud_Cover
100 100 100 100 100 100 100 100 100 100 98 65 76 100 66 53 9 45 10 5 5 5
100 100 100 100 100 100 100 100 100 100 100 99 100 100 86 44 83 100 5 5 24 94
100 100 100 100 100 100 100 100 100 100 100 84 100 71 100 86 94 36 5 74 95 99
100 100 100 100 100 100 100 100 100 100 100 92 90 95 71 100 80 94 98 100 100 100
100 100 100 100 100 100 100 100 100 100 96 99 100 100 99 100 90 100 100 100 100 100
100 100 100 100 100 100 100 100 100 100 98 100 100 100 100 65 100 100 100 100 100 100
94 100 100 100 100 100 100 100 100 100 99 100 100 100 100 100 100 100 100 100 100 100
57 74 87 63 60 51 49 80 96 100 100 94 100 100 100 100 100 100 100 100 100 100
5 5 5 21 92 100 94 100 97 100 100 100 100 100 100 100 100 100 100 100 100 100
5 5 10 69 95 75 100 100 100 100 100 100 99 95 100 100 100 100 99 94 100 100
5 5 5 34 68 100 100 100 100 99 97 100 100 100 100 100 89 71 95 100 100 92
6 37 49 98 43 60 88 90 90 99 100 100 100 100 28 17 79 99 100 85 95 100
86 90 67 97 100 100 100 96 100 100 97 93 36 95 100 100 97 57 44 45 56 26
100 100 96 90 84 43 38 15 31 85 93 99 100 100 100 84 14 20 10 12 6 14

GFSNIL_prec_cloud_039.txt.gz
Cloud_Cover
100 100 100 100 100 100 100 100 100 100 100 100 100 100 100 100 100 99 100 100 100 100
100 100 100 100 100 100 100 100 100 100 100 100 100 100 100 99 100 100 99 94 98 18
100 100 100 100 100 100 100 100 100 100 100 100 100 100 100 94 96 72 100 100 98 57
100 100 100 100 100 100 100 100 100 100 100 100 100 100 100 99 100 100 100 83 90 100
50 100 100 100 100 100 100 100 100 100 100 100 100 100 89 100 100 100 100 100 100 100
100 100 100 100 100 100 100 100 100 100 100 100 100 100 100 100 100 100 100 100 100 100
100 100 100 100 100 100 100 100 100 100 100 100 100 100 100 100 100 100 74 100 100 100
100 87 96 100 100 100 100 100 100 100 100 100 100 100 100 100 100 65 85 100 96 94
72 98 94 99 99 71 88 95 100 100 100 100 100 100 73 99 100 100 94 100 99 100
1 4 6 9 18 7 65 99 77 97 100 100 69 100 98 96 79 89 100 100 85 60
5 5 5 5 5 49 63 74 53 66 67 98 87 100 100 100 100 99 43 26 12 6
45 47 49 62 89 91 48 60 83 81 86 90 98 100 100 63 30 6 7 10 6 13
17 59 74 95 100 100 100 99 95 100 100 88 63 54 6 8 19 85 62 96 25 31
56 92 100 99 99 98 100 99 90 70 73 59 32 20 23 15 37 100 76 99 67 41

GFSNIL_prec_cloud_042.txt.gz
Cloud_Cover
100 96 97 72 100 100 100 100 100 100 100 100 100 100 100 100 100 100 100 100 100 100
92 97 100 100 100 100 100 100 100 100 100 100 100 100 100 100 100 100 100 100 100 100
6 41 100 100 98 100 100 100 100 100 100 100 100 100 100 100 100 100 100 100 100 100
8 27 92 76 100 100 100 100 100 100 100 100 100 100 100 100 100 100 100 100 100 92
98 28 5 37 99 93 100 100 100 100 100 100 100 100 100 100 100 100 100 100 100 100
100 94 64 9 95 100 100 100 100 100 100 100 100 100 100 100 100 100 100 100 100 99
100 74 52 100 100 100 100 100 100 100 100 100 100 100 100 100 100 100 100 100 100 85
36 75 100 100 100 100 100 100 100 100 100 100 100 100 100 100 100 100 100 100 99 93
100 100 100 100 100 100 100 100 100 100 100 100 100 100 100 100 100 100 100 100 97 99
26 92 97 94 100 100 100 85 52 74 79 59 53 91 100 100 100 84 90 84 100 47
5 5 6 16 18 32 50 51 48 58 42 50 70 73 61 84 98 100 100 73 61 62
0 5 5 3 5 5 5 5 5 5 10 79 99 100 98 100 95 76 100 93 34 5
5 5 6 51 15 15 79 99 100 83 48 84 40 100 86 63 54 59 31 15 25 48
5 27 5 49 100 100 78 67 56 45 59 58 92 86 92 56 79 57 32 66 66 97

GFSNIL_prec_cloud_045.txt.gz
Cloud_Cover
69 87 29 18 11 87 89 100 100 100 100 100 100 100 99 100 100 100 100 100 100 100
95 58 44 98 75 66 80 92 67 100 100 100 99 100 100 100 100 100 100 100 100 100
21 97 100 95 14 8 5 99 100 100 100 100 100 100 100 100 100 100 100 100 100 100
21 100 100 100 100 100 100 46 74 100 100 100 100 100 100 100 100 100 100 100 100 100
100 100 100 100 100 100 100 98 100 100 100 100 100 100 100 100 100 100 100 100 100 100
100 100 100 100 100 100 100 94 100 100 100 100 100 100 100 100 100 95 100 100 100 100
80 100 100 100 100 100 84 99 100 100 100 100 100 100 100 100 100 100 100 100 100 100
52 44 54 100 67 60 62 100 100 100 100 100 100 100 100 100 100 100 100 100 100 100
26 49 94 100 100 100 100 100 100 100 100 100 100 100 100 100 100 100 100 100 100 100
59 62 93 98 100 100 100 100 100 100 100 100 100 100 100 100 100 100 100 80 100 94
82 98 89 24 89 100 100 100 98 87 98 99 100 98 100 100 100 83 92 85 100 71
6 7 84 48 72 71 62 36 16 5 46 78 73 62 94 100 100 100 36 5 25 36
5 4 0 0 0 0 0 3 5 7 64 100 100 97 72 48 10 53 92 77 89 46
0 4 0 5 4 3 7 41 96 72 75 95 93 62 42 13 13 72 63 34 84 90

GFSNIL_prec_cloud_051.txt.gz
Cloud_Cover
100 78 96 94 96 100 100 100 100 100 100 100 100 100 100 100 100 100 99 100 100 97
40 65 97 99 100 100 100 100 100 100 100 100 100 100 100 100 100 100 100 100 100 100
83 81 92 100 90 97 99 100 56 64 100 90 100 100 100 100 100 100 100 100 100 98
21 18 88 72 38 93 80 100 100 100 100 84 95 99 91 57 54 100 100 100 100 100
100 85 75 100 100 100 100 100 100 100 100 100 100 100 100 100 97 100 100 100 100 100
100 100 100 100 100 100 100 100 100 100 100 100 100 100 100 100 100 100 100 100 100 100
100 100 100 98 96 100 100 100 100 100 100 100 100 100 100 100 100 100 100 100 100 100
56 68 25 97 98 48 100 100 100 100 100 100 100 100 100 100 100 100 100 100 100 100
0 1 46 41 81 100 100 100 100 100 100 100 100 100 100 100 100 100 100 100 100 100
62 100 100 100 100 100 100 100 100 100 100 100 100 100 100 100 100 100 100 98 100 100
84 99 100 100 100 100 100 100 100 100 100 100 100 100 100 100 100 100 100 100 100 100
100 100 100 100 100 100 100 100 100 100 100 100 100 100 100 100 100 100 100 100 100 100
100 100 100 100 100 100 100 100 100 100 100 100 100 100 100 100 100 100 100 100 100 100
100 100 100 100 100 100 100 100 100 100 100 100 100 100 100 100 100 100 100 100 100 72

GFSNIL_prec_cloud_054.txt.gz
Cloud_Cover
100 100 100 100 100 100 100 100 100 99 85 100 98 99 100 66 88 98 100 100 100 100
97 100 100 100 97 100 100 100 99 24 96 70 96 98 100 92 100 100 100 99 97 96
5 5 4 68 89 74 56 9 21 5 76 89 67 100 100 100 98 100 39 20 74 100
98 73 27 43 91 5 5 62 94 97 22 64 99 98 100 97 88 98 99 100 100 100
100 90 100 98 100 99 70 49 100 98 100 100 100 100 100 100 100 100 100 100 100 100
100 100 100 100 100 79 94 88 80 100 100 100 100 100 100 100 100 100 100 100 100 100
5 91 100 100 100 94 97 96 100 87 98 100 100 100 100 100 100 100 100 100 100 100
0 1 5 96 100 100 100 100 100 100 100 100 100 100 100 100 100 100 100 100 100 100
0 0 0 0 37 100 100 100 100 100 100 100 100 100 100 100 100 100 100 100 100 100
0 0 0 0 14 75 100 100 100 100 100 100 100 100 100 100 100 100 100 100 100 100
1 0 0 44 93 100 100 100 100 100 100 100 100 100 100 100 100 100 100 100 100 100
100 100 95 100 100 100 100 100 100 100 100 100 100 100 100 100 100 100 100 100 100 100
100 100 100 100 100 100 100 100 100 100 100 100 100 100 100 100 100 100 100 100 100 100
100 100 100 100 100 100 100 100 100 100 100 100 100 100 100 100 100 100 100 100 100 100

GFSNIL_prec_cloud_057.txt.gz
Cloud_Cover
100 100 100 100 100 100 100 100 100 100 100 100 100 100 100 100 100 100 100 100 96 82
100 100 100 100 100 100 100 100 100 100 100 100 100 100 100 97 94 100 71 26 87 100
61 94 100 100 100 100 100 100 100 100 100 100 100 100 100 100 78 40 64 95 100 100
62 83 12 54 48 91 100 100 100 100 88 86 97 98 31 62 98 99 100 100 100 100
5 17 6 10 36 89 86 86 98 73 99 93 90 94 98 100 100 100 100 100 100 100
99 51 93 100 100 100 100 99 100 99 100 92 87 100 100 100 100 100 100 100 100 100
0 21 42 64 100 100 100 100 100 96 100 100 100 76 100 100 100 100 100 100 100 100
0 0 0 1 1 11 64 100 100 100 100 100 100 95 99 100 98 100 100 100 100 100
0 5 0 0 0 0 0 0 60 76 100 100 100 81 100 100 100 100 100 100 100 100
99 34 17 28 4 4 1 0 0 26 89 100 100 100 100 100 100 100 100 100 100 100
100 100 100 100 100 95 53 27 29 50 90 100 100 100 100 100 100 100 100 100 100 100
56 84 100 100 100 100 100 100 100 100 100 100 100 100 100 100 100 100 100 100 100 100
98 100 100 100 100 100 100 100 100 100 100 100 100 100 100 100 100 100 100 100 100 100
100 100 100 100 100 100 100 100 100 100 100 100 100 100 100 100 100 100 100 100 100 100

GFSNIL_prec_cloud_060.txt.gz
Cloud_Cover
100 100 100 100 100 100 100 100 100 100 100 100 100 100 100 100 100 100 100 100 100 100
100 100 98 100 100 100 100 100 100 100 100 100 100 100 100 100 100 100 100 100 100 100
100 99 98 64 100 100 100 100 100 100 100 100 100 100 100 100 100 100 100 100 100 97
20 31 82 69 29 13 39 83 100 100 100 100 100 100 100 100 100 100 100 34 56 28
10 22 20 4 16 19 37 87 92 51 8 50 34 63 100 18 65 59 43 59 100 78
0 4 3 3 3 18 29 13 50 42 18 76 66 82 67 97 95 86 94 100 99 100
0 1 0 1 3 5 4 39 87 100 35 99 100 91 77 98 89 96 100 100 100 100
4 16 3 0 0 2 0 15 82 93 45 14 15 97 94 100 99 100 97 100 100 99
0 5 5 4 10 43 5 5 30 4 1 5 12 5 31 82 99 100 94 100 100 100
32 5 5 5 9 39 28 42 81 92 68 24 12 28 89 95 59 100 99 100 100 100
100 78 57 91 100 79 41 21 87 98 84 65 65 94 100 100 100 99 100 100 100 100
67 100 100 98 100 100 99 56 86 87 100 100 85 100 100 100 100 100 100 100 100 100
86 60 98 100 100 100 100 100 100 100 100 100 100 100 100 100 100 100 100 100 100 100
100 100 100 87 99 100 100 100 100 100 100 100 100 100 100 100 100 100 100 100 100 100

GFSNIL_prec_cloud_066.txt.gz
Cloud_Cover
82 86 100 100 100 100 100 100 100 100 100 100 100 100 100 100 100 100 100 100 100 100
22 100 100 100 100 100 100 100 100 100 100 100 100 100 100 100 100 100 100 100 100 100
100 100 99 98 100 100 100 100 100 100 100 100 100 100 100 100 100 100 100 100 100 100
100 100 100 100 100 100 91 100 100 100 100 100 100 100 100 100 100 100 100 100 100 100
100 100 100 100 100 100 67 3 4 51 100 100 100 100 100 100 100 100 100 100 100 100
8 97 100 34 48 60 33 18 0 2 8 66 89 100 100 100 100 95 94 100 100 100
3 4 1 9 55 15 16 39 13 0 4 10 5 4 15 18 26 11 17 60 97 97
5 3 87 5 4 5 5 5 5 11 3 1 13 4 17 1 5 5 7 39 5 6
5 5 2 7 8 31 31 13 10 8 32 20 2 0 5 5 10 30 40 13 11 19
5 17 81 26 5 25 95 69 99 100 100 100 24 15 18 32 47 68 70 68 69 73
78 5 13 20 11 70 82 98 100 100 100 100 100 100 100 100 100 100 100 100 100 100
80 58 5 5 64 94 85 64 46 92 98 100 100 95 100 100 89 76 100 95 100 100
33 96 83 92 60 45 15 97 97 100 100 100 100 100 100 100 100 100 100 100 100 100
82 84 60 33 80 90 93 100 100 100 100 100 100 100 100 100 100 100 100 100 100 100

GFSNIL_prec_cloud_069.txt.gz
Cloud_Cover
52 34 7 100 96 100 100 100 100 100 100 100 100 100 100 100 100 100 100 100 100 100
100 100 18 15 50 99 100 100 100 100 100 100 100 100 100 100 100 100 100 100 100 100
100 100 64 20 52 56 93 100 100 100 100 100 100 100 100 100 100 100 100 100 100 100
100 99 100 100 100 98 70 48 100 100 100 100 100 100 100 100 100 100 100 100 100 100
100 100 100 100 100 100 97 86 36 79 100 100 100 100 100 100 100 100 100 100 100 100
5 94 100 100 100 100 100 100 100 57 2 7 53 95 97 100 100 100 100 100 100 100
4 0 14 89 100 100 100 100 100 90 26 4 4 0 1 5 4 6 21 9 63 78
36 2 0 0 30 100 100 100 100 49 17 2 2 4 36 14 39 36 42 24 4 5
100 96 5 5 5 4 31 52 100 100 100 65 10 5 31 55 100 98 42 5 2 0
98 100 100 99 14 6 5 55 50 52 90 100 99 38 67 98 100 93 58 37 22 8
100 100 79 52 51 96 88 94 54 25 91 86 98 97 100 100 100 100 100 100 100 100
93 100 100 97 77 99 19 30 64 99 20 66 88 95 100 100 100 100 100 100 100 100
100 100 100 100 100 86 100 100 100 86 100 100 100 100 100 100 100 100 100 100 100 100
100 100 100 100 100 100 100 100 100 100 100 100 100 100 100 100 100 100 100 100 100 100

GFSNIL_prec_cloud_072.txt.gz
Cloud_Cover
100 95 100 37 96 97 50 95 100 100 100 100 100 100 100 100 100 100 100 100 100 100
100 94 38 1 4 4 73 86 100 100 100 100 100 100 100 100 100 100 100 100 100 100
100 100 67 0 0 0 18 46 99 100 100 100 100 100 100 100 100 100 100 100 100 100
100 100 100 94 2 0 0 2 38 77 100 100 100 100 100 100 100 100 100 100 100 100
55 100 100 100 87 13 24 12 0 31 70 100 100 100 100 100 100 100 100 96 100 100
4 2 76 100 100 100 100 100 100 96 48 15 2 1 58 99 100 100 100 100 100 100
58 13 47 28 24 99 100 100 100 100 100 91 37 48 4 5 9 15 3 8 17 34
42 5 24 31 9 2 6 68 100 100 100 100 100 100 70 18 5 16 9 13 3 0
90 44 5 52 100 99 73 38 5 18 100 100 100 100 100 100 84 63 82 58 57 32
100 100 100 99 100 100 98 100 100 46 26 42 98 100 100 98 100 100 100 100 100 100
97 81 96 100 100 100 100 85 100 100 100 98 91 100 100 100 100 100 100 100 100 100
100 100 100 100 100 100 100 100 100 100 100 100 100 100 100 100 100 100 100 100 100 100
100 100 100 100 100 100 100 100 100 100 100 100 100 100 100 100 100 100 100 100 100 100
100 100 100 100 100 100 100 100 100 100 100 100 100 100 100 100 100 100 100 100 100 100

GFSNIL_prec_cloud_075.txt.gz
Cloud_Cover
0 65 93 100 100 96 82 100 100 100 100 100 100 100 100 100 100 100 100 100 100 100
42 28 71 92 100 100 100 75 100 100 100 100 100 100 100 100 100 100 100 100 100 100
49 13 4 0 16 88 100 100 100 97 86 100 100 100 100 100 100 100 100 100 100 100
59 14 9 10 0 2 41 48 43 41 100 100 100 100 100 100 100 100 100 100 100 100
100 32 100 100 69 0 0 0 0 3 91 100 100 93 65 100 98 100 100 100 100 100
100 46 17 84 99 100 97 24 0 14 13 9 80 100 92 95 100 100 100 100 100 100
100 28 17 5 5 2 19 91 97 100 100 98 65 30 19 27 53 99 100 100 100 100
94 53 68 78 67 92 76 50 50 96 100 100 100 100 98 83 88 91 65 57 31 39
100 100 100 100 100 97 93 100 97 98 99 80 72 100 100 100 100 100 100 96 58 25
100 100 100 100 100 100 100 100 100 100 100 100 100 97 97 100 100 100 100 100 100 100
100 100 100 100 100 100 100 100 100 100 100 100 100 100 100 100 100 100 100 100 100 100
100 100 100 100 100 100 100 100 100 100 100 100 100 100 100 100 100 100 100 100 100 100
100 100 100 100 100 100 100 100 100 100 100 100 100 100 100 100 100 100 100 100 100 100
100 100 100 100 100 100 100 100 100 100 100 100 100 100 100 100 100 100 100 100 100 100

GFSNIL_prec_cloud_078.txt.gz
Cloud_Cover
0 8 18 38 72 100 100 100 100 100 100 100 100 100 100 100 100 100 100 100 100 100
59 25 100 100 90 100 100 98 100 100 100 100 100 100 100 100 100 100 100 100 100 100
100 100 100 100 97 100 100 59 61 30 98 100 100 100 100 100 100 100 100 100 100 100
100 100 99 74 89 56 98 100 100 76 88 100 100 100 99 100 100 100 100 100 100 100
100 100 84 73 100 100 68 79 100 100 100 100 100 100 100 100 100 100 100 100 100 100
100 100 84 6 21 76 98 40 66 99 90 88 83 100 97 100 100 100 100 100 100 90
100 100 98 16 14 12 4 12 70 69 58 24 10 69 99 100 100 100 100 100 91 61
100 100 100 98 74 60 74 94 63 37 27 84 100 100 100 100 100 100 100 100 74 79
100 100 100 100 100 100 100 100 100 100 100 100 100 100 100 93 100 100 100 100 94 77
100 100 100 100 100 100 100 100 100 100 100 100 100 100 94 100 100 100 100 100 100 100
100 100 100 100 100 100 100 100 100 100 100 100 100 100 100 100 100 100 100 100 100 100
100 100 100 100 100 100 100 100 100 100 100 100 100 100 100 100 100 100 100 100 100 100
100 100 100 100 100 100 100 100 100 100 100 100 100 100 100 100 100 100 100 100 100 100
100 100 100 100 100 100 100 100 100 100 100 100 100 100 100 100 100 100 100 100 100 100

GFSNIL_prec_cloud_081.txt.gz
Cloud_Cover
58 80 100 100 100 99 100 100 100 100 100 100 100 100 100 100 100 100 100 100 100 100
86 44 66 54 97 100 100 100 100 100 100 100 100 100 100 100 100 100 100 100 100 100
100 96 94 100 100 100 100 100 100 100 100 100 100 100 100 100 100 100 100 100 100 100
100 100 100 100 14 42 95 100 100 100 100 100 100 100 100 100 100 100 100 100 100 100
100 100 100 100 98 100 100 100 100 100 100 100 100 100 100 100 100 100 100 100 100 100
100 100 100 100 90 100 100 97 79 98 100 100 100 100 100 100 100 100 100 100 100 100
100 100 100 100 84 45 85 99 100 100 100 100 86 99 89 82 100 100 97 100 88 99
100 100 100 100 96 89 98 100 98 100 87 88 100 100 99 100 100 100 100 100 93 53
100 100 100 100 100 100 100 100 100 100 100 100 100 100 98 99 83 97 100 100 100 100
100 100 100 100 100 100 100 100 100 100 100 100 100 100 100 100 100 100 100 100 100 100
100 100 100 100 100 100 100 100 100 100 100 100 100 100 100 100 100 100 100 100 100 100
100 100 100 100 100 100 100 100 100 100 100 100 100 100 100 100 100 100 100 100 100 100
100 100 100 100 100 100 100 100 100 100 100 100 100 100 100 100 100 100 100 100 100 100
100 100 100 100 100 100 100 100 100 100 100 100 100 100 96 87 100 100 100 100 100 100

GFSNIL_prec_cloud_084.txt.gz
Cloud_Cover
100 72 81 96 100 100 100 100 100 100 100 100 100 100 100 100 100 100 100 100 100 100
100 100 92 100 100 100 100 100 100 100 100 100 100 100 100 100 100 100 100 100 100 100
100 100 100 100 100 100 96 100 100 100 100 100 100 100 100 100 100 100 100 100 100 100
100 100 100 100 100 100 81 100 100 100 100 100 100 100 100 100 100 100 100 100 100 100
88 100 100 100 100 100 100 98 100 91 100 100 100 100 100 100 100 100 100 100 100 100
85 88 100 100 100 99 100 100 100 100 100 100 100 100 100 100 100 100 100 100 100 100
100 100 100 100 100 100 100 100 100 100 100 100 100 100 100 100 100 100 100 100 100 100
100 100 100 100 100 100 100 100 100 100 100 100 100 100 100 100 99 100 100 100 100 83
100 100 100 100 100 100 100 100 100 100 100 100 100 100 90 100 100 100 100 100 100 100
100 100 100 100 100 100 100 100 100 100 100 100 100 100 100 100 100 100 100 100 100 100
100 100 100 100 100 100 100 100 100 100 100 100 100 100 100 100 100 100 100 100 100 100
100 100 100 100 100 100 100 100 100 100 100 100 100 100 100 100 100 100 100 100 100 100
100 100 100 100 100 100 100 100 100 100 100 100 100 100 100 100 100 100 100 100 100 100
100 100 100 100 100 100 100 100 100 100 100 100 100 100 100 100 100 100 100 100 100 100

GFSNIL_prec_cloud_087.txt.gz
Cloud_Cover
13 0 9 100 89 92 100 100 100 100 100 100 100 100 100 100 100 100 100 100 100 100
21 14 34 100 55 99 88 95 100 100 100 100 100 100 100 100 100 100 100 100 100 100
27 74 97 100 78 100 98 97 100 100 100 100 100 100 100 100 100 100 100 100 100 100
99 100 41 30 95 100 100 97 100 100 100 100 100 100 100 100 100 100 100 100 100 100
100 100 100 100 100 100 100 93 100 100 100 100 100 100 100 100 100 100 100 100 100 100
93 100 100 100 89 100 100 100 100 100 100 100 100 100 100 100 100 100 100 100 100 100
100 100 100 65 100 100 100 100 100 100 95 100 100 100 100 100 100 100 100 100 100 100
100 100 100 100 100 100 100 100 100 100 100 100 100 100 100 100 100 100 100 100 100 100
100 100 100 100 100 100 100 100 100 100 100 100 100 100 100 100 100 100 100 100 100 100
100 100 100 100 100 100 100 100 100 100 100 100 100 100 100 100 100 100 100 100 100 100
100 100 100 100 100 100 100 100 100 100 100 100 100 100 100 98 100 100 100 100 100 100
100 100 100 100 100 100 100 100 100 100 100 100 100 100 100 100 100 100 100 100 100 100
100 100 100 100 100 100 100 100 100 100 100 100 100 100 100 100 100 100 100 100 100 100
100 100 100 100 100 100 100 100 100 100 100 100 100 100 100 100 100 100 100 100 100 100

GFSNIL_prec_cloud_093.txt.gz
Cloud_Cover
100 73 5 99 8 16 1 31 98 100 100 100 100 100 100 100 100 100 100 100 100 100
100 100 67 71 12 17 5 60 96 100 100 100 100 100 100 100 100 100 100 100 100 100
100 100 93 84 58 5 100 100 100 100 100 100 100 100 100 100 100 100 100 100 100 100
100 100 99 28 21 9 96 97 96 100 100 100 100 100 100 100 100 100 100 100 100 100
100 100 86 73 83 99 74 53 89 100 95 100 100 100 100 100 100 100 100 100 100 100
100 100 100 100 100 100 100 100 100 53 99 93 100 100 100 100 100 100 100 100 100 100
100 100 100 100 100 100 100 100 100 100 100 100 100 100 100 100 100 100 100 100 100 100
100 100 100 100 100 100 100 100 100 100 100 100 100 100 100 100 100 100 100 100 100 100
100 100 100 100 100 100 100 100 100 100 100 100 100 100 100 100 100 100 100 100 100 100
100 100 100 100 100 100 100 100 100 100 100 100 100 100 100 100 100 100 100 100 100 100
100 100 100 100 100 100 100 100 100 100 100 100 100 100 100 100 100 100 100 100 100 100
100 100 100 100 100 100 100 100 100 100 100 100 100 100 100 100 100 100 100 100 100 100
100 100 100 100 100 100 100 100 100 100 100 100 100 100 100 100 100 100 100 100 100 100
100 100 100 100 100 100 100 100 100 100 100 100 100 100 100 100 100 100 100 100 100 100

GFSNIL_prec_cloud_096.txt.gz
Cloud_Cover
100 100 100 100 100 100 100 100 100 74 86 100 100 100 90 100 100 98 58 97 100 100
100 100 100 100 99 100 100 47 46 39 98 74 100 100 100 100 96 100 95 100 100 100
100 100 100 100 98 100 41 9 95 25 46 100 100 100 99 100 100 100 100 100 100 100
100 100 100 100 34 86 4 62 100 54 100 100 94 100 100 100 100 100 100 100 100 100
100 100 100 100 100 58 8 100 92 100 100 100 100 100 100 100 100 100 100 100 100 100
100 100 100 100 100 94 79 100 94 100 100 100 96 100 100 100 100 100 100 100 100 100
100 100 100 100 100 100 100 100 100 100 100 100 100 100 100 100 100 100 100 100 100 100
100 100 100 100 100 100 100 100 100 100 100 100 100 100 100 100 100 100 100 100 100 100
100 100 100 100 100 100 100 100 100 100 100 100 100 100 100 100 100 100 100 100 100 100
100 100 100 100 100 100 100 100 100 100 100 100 100 100 100 100 100 100 100 100 100 100
100 100 100 100 100 100 100 100 100 100 100 100 100 100 100 100 100 100 100 100 100 100
100 100 100 100 100 100 100 100 100 100 100 100 100 100 100 100 100 100 100 100 100 100
100 100 100 100 100 100 100 100 100 100 100 100 100 100 100 100 100 100 100 100 100 100
100 100 100 100 100 100 100 100 100 100 100 100 100 100 100 100 100 100 100 100 100 100

GFSNIL_prec_cloud_099.txt.gz
Cloud_Cover
74 92 100 100 100 100 100 100 100 100 100 64 100 100 100 100 100 100 73 74 100 100
100 100 100 100 100 100 100 96 97 71 100 100 100 100 67 94 100 100 100 100 100 100
100 100 100 100 100 100 100 63 100 100 100 99 100 95 12 65 99 100 100 98 100 100
100 100 100 100 100 100 98 41 99 100 56 17 6 48 93 100 100 98 100 96 100 100
100 100 100 100 100 100 100 88 100 100 48 89 100 98 97 100 100 100 100 100 100 100
100 100 100 100 100 100 100 100 58 45 100 100 100 100 100 100 100 100 100 100 100 100
100 100 100 100 100 100 100 98 100 96 100 100 100 100 100 100 100 100 100 100 100 100
100 100 100 100 100 100 100 100 99 100 100 100 100 100 100 100 100 100 100 100 100 100
100 100 100 100 100 100 100 100 100 100 100 100 100 100 98 100 100 100 100 100 100 100
100 100 100 100 100 100 100 100 100 100 100 100 100 100 100 100 100 100 100 100 100 100
100 100 100 100 100 100 100 100 100 100 100 100 100 100 100 100 100 100 100 100 100 100
100 100 100 100 100 100 100 100 100 100 100 100 100 100 100 100 100 100 100 100 100 100
100 100 100 100 100 100 100 100 100 100 100 100 100 100 100 100 100 100 100 100 100 100
100 100 100 100 100 100 100 100 100 100 100 100 100 100 100 100 100 100 100 100 100 100

GFSNIL_prec_cloud_102.txt.gz
Cloud_Cover
100 42 29 100 100 100 100 100 100 100 100 100 100 100 100 68 100 100 100 100 100 100
100 95 98 85 28 100 100 100 100 100 100 100 100 100 90 100 100 100 100 100 100 81
100 100 90 100 100 100 100 100 100 100 98 59 76 54 100 100 100 100 100 100 100 100
100 100 100 100 100 100 100 100 100 100 100 86 88 100 100 100 92 75 88 94 100 100
100 100 100 100 100 100 100 100 100 100 100 100 100 100 100 88 41 82 52 100 100 92
100 100 100 100 100 100 100 100 100 100 100 100 95 100 90 48 98 100 100 100 100 100
100 100 100 100 100 100 100 100 100 100 100 89 100 99 94 100 100 100 100 100 100 100
100 100 100 100 100 100 100 100 100 100 100 100 100 94 98 100 100 100 100 100 100 100
100 100 100 100 100 100 100 100 100 100 100 100 100 100 100 100 100 100 100 100 100 100
100 100 100 100 100 100 100 100 100 100 100 100 100 100 100 100 100 100 100 100 100 100
100 100 100 100 100 100 100 100 100 100 100 100 100 100 100 100 100 100 100 100 100 100
100 100 100 100 100 100 100 100 100 100 100 100 100 100 100 100 100 100 100 100 100 100
100 100 100 100 100 100 100 100 100 100 100 100 100 100 100 100 100 100 100 100 100 100
100 100 100 100 100 100 100 100 100 100 100 100 100 100 100 100 100 100 100 100 100 100

GFSNIL_prec_cloud_105.txt.gz
Cloud_Cover
0 98 100 77 71 64 82 88 100 100 100 100 100 100 100 100 78 98 100 100 100 100
86 88 100 100 91 100 100 100 100 100 100 100 100 100 100 100 100 94 69 100 100 100
95 100 100 100 100 100 100 100 100 100 100 100 100 100 100 100 99 90 71 100 100 100
100 100 100 100 100 100 100 100 100 100 100 100 100 100 100 100 99 91 100 97 100 100
100 100 100 100 100 100 100 100 100 100 100 100 100 100 100 100 100 100 100 100 100 83
100 100 100 100 100 100 100 100 100 100 100 100 100 100 100 100 100 98 91 69 96 75
100 100 100 100 100 100 100 100 100 100 100 100 100 100 100 100 100 99 100 100 100 100
100 100 100 100 100 100 100 100 100 100 95 99 100 100 100 100 88 100 100 94 100 100
100 100 100 100 100 100 100 100 100 100 100 100 100 100 100 100 100 100 100 100 100 100
100 100 100 100 100 100 100 100 100 100 100 100 100 100 100 100 100 100 100 100 100 100
100 100 100 100 100 100 100 100 100 100 100 100 100 100 100 100 100 100 100 100 100 100
100 100 100 100 100 100 100 100 100 100 100 100 100 100 100 100 100 100 100 100 100 100
100 100 100 100 100 100 100 100 100 100 100 100 100 100 100 100 100 100 100 100 100 100
100 100 100 100 100 100 100 100 100 100 100 100 100 100 100 100 100 100 100 100 100 100

GFSNIL_prec_cloud_108.txt.gz
Cloud_Cover
100 100 56 16 100 100 100 100 100 100 100 100 100 100 100 100 100 100 100 100 100 64
100 100 73 16 40 100 100 100 100 100 100 100 100 100 100 100 100 100 100 100 83 95
100 100 46 97 61 100 100 100 100 100 100 100 100 100 100 100 100 100 100 100 96 91
100 100 99 41 14 100 100 99 100 97 99 100 100 100 100 100 100 100 100 100 91 64
100 100 100 99 100 100 100 100 100 100 100 100 100 100 100 100 100 100 100 96 56 98
100 100 100 100 100 100 100 100 100 100 100 100 100 100 100 100 100 100 100 95 100 93
100 100 100 100 100 100 100 100 100 100 100 100 100 100 100 100 100 100 100 100 100 81
100 100 100 100 100 100 100 100 100 100 100 100 100 100 100 100 100 100 100 100 83 95
100 100 100 100 100 100 100 100 100 100 100 100 100 100 100 100 100 100 100 100 100 100
100 100 100 100 100 100 100 100 100 100 100 100 100 100 100 100 100 100 100 100 100 100
100 100 100 100 100 100 100 100 100 100 100 100 100 100 100 100 100 100 100 100 100 100
100 100 100 100 100 100 100 100 100 100 100 100 100 100 100 100 100 100 100 100 100 100
100 100 100 100 100 100 100 100 100 100 100 100 100 100 100 100 100 100 100 100 100 100
100 100 100 100 100 100 100 100 100 100 100 100 100 100 100 100 100 100 100 100 100 100

GFSNIL_prec_cloud_111.txt.gz
Cloud_Cover
100 100 100 98 30 0 5 16 100 100 100 100 100 100 92 75 62 100 100 100 98 100
100 100 100 100 98 15 0 0 65 12 100 100 100 100 100 84 46 100 100 100 100 100
100 100 100 100 100 48 0 0 42 77 66 100 100 100 100 100 48 100 100 100 100 100
100 100 100 100 100 100 84 65 1 45 77 100 100 100 100 100 100 100 100 100 100 100
100 100 100 100 100 100 100 100 95 41 95 100 100 100 100 100 100 100 100 100 100 100
100 100 100 100 100 100 100 100 99 50 42 98 100 100 100 100 90 100 100 100 100 100
100 100 100 100 100 100 100 100 99 87 100 100 100 100 100 100 100 100 100 100 100 100
100 100 100 100 100 100 100 100 100 100 100 100 100 100 100 100 100 100 100 100 100 100
100 100 100 100 100 100 100 100 100 100 100 100 100 100 100 100 100 100 100 100 100 100
100 100 100 100 100 100 100 100 100 100 100 100 100 100 100 100 100 100 100 100 100 100
100 100 100 100 100 100 100 100 100 100 100 100 100 100 100 100 100 100 100 100 100 100
100 100 100 100 100 100 100 100 100 100 100 100 100 100 100 100 100 100 100 100 100 100
100 100 100 100 100 100 100 100 100 100 100 100 100 100 100 100 100 100 100 100 100 100
100 100 100 100 100 100 100 100 100 100 100 100 100 100 100 100 100 100 100 100 100 100

GFSNIL_prec_cloud_114.txt.gz
Cloud_Cover
100 100 100 97 94 70 48 1 3 20 7 98 100 100 70 96 100 100 82 88 10 82
100 100 100 100 100 100 91 36 0 3 20 53 100 99 8 5 100 100 98 70 7 96
100 100 100 100 100 100 100 96 63 3 55 57 73 72 44 70 100 100 100 99 9 100
100 100 100 100 100 100 100 100 100 37 7 33 65 97 92 78 100 99 98 100 64 100
100 100 100 100 100 100 100 100 100 91 35 26 98 97 100 100 100 90 100 100 100 100
100 100 100 100 100 100 100 96 100 100 100 100 100 100 100 87 100 100 100 100 100 100
100 100 100 100 100 100 100 100 100 80 100 100 100 100 100 100 100 100 100 100 100 100
100 100 100 100 100 100 100 100 100 100 100 100 100 100 100 100 100 82 100 100 83 100
100 100 100 100 100 100 100 100 100 100 100 100 100 100 100 100 100 100 100 100 100 100
100 100 100 100 100 100 100 100 100 100 100 100 100 100 100 100 100 100 100 100 100 100
100 100 100 100 100 100 100 100 100 100 100 100 100 100 100 100 100 100 100 100 100 100
100 100 100 100 100 100 100 100 100 100 100 100 100 100 100 100 100 100 100 100 100 100
100 100 100 100 100 100 100 100 100 100 100 100 100 100 100 100 100 100 100 100 100 100
100 100 100 100 100 100 100 100 100 100 100 100 100 100 100 100 100 100 100 100 100 100

GFSNIL_prec_cloud_117.txt.gz
Cloud_Cover
78 100 100 100 100 100 100 74 33 8 0 0 13 39 24 5 98 100 98 100 100 100
31 66 100 100 100 100 100 100 100 70 42 16 0 15 50 0 26 100 100 100 100 100
52 75 96 100 100 100 100 100 100 100 100 100 53 1 22 0 0 27 100 100 100 100
90 95 95 100 100 100 100 100 100 100 100 100 100 9 98 28 0 6 100 100 100 100
100 100 100 100 100 100 100 100 100 100 100 100 100 57 98 72 0 5 44 100 98 86
100 100 100 100 100 100 100 100 100 100 100 100 100 80 38 100 27 100 100 67 24 50
100 100 100 100 100 100 100 100 100 100 100 100 100 100 57 74 41 91 100 86 29 21
100 100 100 100 100 100 100 100 100 100 100 100 100 100 100 100 100 100 90 88 100 100
100 100 100 100 100 100 100 100 100 100 100 100 100 100 100 100 100 100 100 100 100 100
100 100 100 100 100 100 100 100 100 100 100 100 100 100 100 100 100 100 100 100 100 100
100 100 100 100 100 100 100 100 100 100 100 100 100 100 100 100 100 100 100 100 100 100
100 100 100 100 100 100 100 100 100 100 100 100 100 100 100 100 100 100 100 100 100 100
100 100 100 100 100 100 100 100 100 100 100 100 100 100 100 100 100 100 100 100 100 100
100 100 100 100 100 100 100 100 100 100 100 100 100 100 100 100 100 100 100 100 100 100

GFSNIL_prec_cloud_120.txt.gz
Cloud_Cover
8 53 93 72 93 99 96 99 74 58 97 99 90 62 20 1 83 64 0 0 2 5
100 100 100 100 97 100 99 100 100 99 100 100 100 100 100 55 2 100 13 0 2 15
100 100 100 100 100 100 100 100 100 100 100 100 100 100 100 100 40 81 99 1 0 10
100 100 100 100 100 100 100 100 100 100 100 100 100 100 100 100 99 24 100 0 0 1
100 100 86 100 100 100 100 100 100 100 100 100 100 100 100 100 100 8 100 38 0 39
100 100 89 100 100 100 100 100 100 100 100 100 100 100 100 100 100 65 89 100 0 9
100 100 100 100 100 100 100 100 100 100 100 100 100 100 100 100 100 100 34 100 15 0
99 98 100 100 100 100 100 100 100 100 100 100 100 100 100 100 100 100 38 100 10 13
100 100 100 100 100 100 100 100 100 100 100 100 100 100 100 100 100 100 100 100 100 100
100 100 100 100 100 100 100 100 100 100 100 100 100 100 100 100 100 100 100 100 100 100
100 100 100 100 100 100 100 100 100 100 100 100 100 100 100 100 100 100 100 100 100 100
100 100 100 100 100 100 100 100 100 100 100 100 100 100 100 100 100 100 100 100 100 100
100 100 100 100 100 100 100 100 100 100 100 100 100 100 100 100 100 100 100 100 100 100
100 100 100 100 100 100 100 100 100 100 100 100 100 100 100 100 100 100 100 100 100 100

GFSNIL_prec_cloud_123.txt.gz
Cloud_Cover
100 100 100 100 100 100 100 100 100 100 100 98 99 100 100 100 100 79 9 100 100 44
100 100 100 100 100 100 100 100 100 100 100 100 100 100 100 100 100 100 90 5 100 82
100 100 100 100 100 100 100 100 100 100 100 100 100 100 100 100 100 100 100 52 33 100
100 100 100 100 100 100 100 100 100 100 100 100 100 100 100 100 100 100 100 100 39 13
100 100 100 100 100 100 100 100 100 100 100 100 100 100 100 100 100 100 100 100 84 3
100 100 100 100 100 100 100 100 100 100 100 100 100 100 100 100 100 100 100 100 100 33
100 100 80 90 91 92 96 100 100 100 100 100 100 100 100 100 100 100 100 100 100 91
78 73 69 75 85 89 96 99 100 100 100 100 100 100 100 100 100 100 100 100 100 100
87 84 95 100 100 100 100 100 99 100 100 100 100 100 100 100 100 100 100 100 100 100
100 100 100 100 100 100 98 100 100 100 100 100 100 100 100 100 100 100 100 100 100 100
100 100 99 100 100 100 100 100 100 100 100 100 100 100 100 100 100 100 100 100 100 100
100 100 100 100 100 100 100 100 100 100 100 100 100 100 100 100 100 100 100 100 100 100
100 100 100 100 100 100 100 100 100 100 100 100 100 100 100 100 100 100 100 100 100 100
100 100 100 100 100 100 100 100 100 100 100 100 100 100 100 100 100 100 100 100 100 100

GFSNIL_prec_cloud_129.txt.gz
Cloud_Cover
100 100 100 100 100 100 100 100 96 94 100 100 100 100 100 100 100 100 100 100 100 100
100 100 100 100 100 100 100 99 100 97 100 100 100 100 100 100 100 100 100 100 100 100
100 100 100 100 100 100 100 100 97 95 100 100 100 100 100 100 100 100 100 100 100 100
100 100 100 100 100 100 100 100 100 100 97 100 100 100 100 100 100 100 100 100 100 100
100 100 100 100 100 100 100 100 100 100 100 100 100 100 100 100 100 100 100 100 100 100
100 100 100 100 100 100 100 100 100 100 100 97 100 100 100 100 100 100 100 100 100 100
98 100 100 100 96 100 100 100 100 100 100 100 100 100 100 100 100 100 100 100 100 100
99 100 100 100 100 100 99 98 98 100 100 100 100 100 100 100 100 100 100 100 100 100
100 100 100 98 99 100 97 100 100 100 100 100 100 100 100 100 100 100 100 100 100 100
100 100 100 100 100 100 97 100 100 100 100 100 100 100 100 100 100 100 100 100 100 100
100 100 100 100 100 100 100 100 100 100 100 100 100 100 100 100 100 100 100 100 100 100
100 100 100 100 100 100 100 100 100 100 100 100 100 100 100 100 100 100 100 100 100 100
100 100 100 100 100 100 100 100 100 100 100 100 100 100 100 100 100 100 100 100 100 100
100 100 100 100 100 100 100 100 100 100 100 100 100 100 100 100 100 100 100 100 100 100

GFSNIL_prec_cloud_132.txt.gz
Cloud_Cover
70 99 94 100 100 100 100 100 100 100 100 100 100 100 100 100 100 100 100 100 100 100
90 100 100 100 100 100 100 100 100 100 100 100 100 100 100 100 100 100 100 100 100 100
100 100 100 100 100 100 100 100 100 100 100 100 100 100 100 100 100 100 100 100 100 100
100 100 100 100 100 100 100 100 100 100 100 100 100 100 100 100 100 100 100 100 100 100
100 100 100 100 100 100 100 100 100 100 100 100 100 100 100 100 100 100 100 100 100 100
100 100 100 100 100 100 100 100 100 100 100 100 100 100 100 100 100 100 100 100 100 100
47 76 100 100 100 100 100 100 100 100 100 100 100 100 100 100 100 100 100 100 100 100
100 100 100 100 99 100 100 100 100 100 100 100 100 100 100 100 100 100 100 100 100 100
96 100 100 100 100 100 100 92 94 97 96 100 100 100 100 92 100 100 100 100 100 100
100 100 100 100 100 100 100 96 95 99 94 84 98 100 100 100 100 100 100 100 100 100
100 100 100 100 100 100 100 100 100 100 100 100 100 100 100 100 100 100 100 100 100 100
100 100 100 100 100 100 100 100 100 100 100 100 100 100 100 100 100 100 100 100 100 100
100 100 100 100 100 100 100 100 100 100 100 100 100 100 100 100 100 100 100 100 100 100
100 100 100 100 100 100 100 100 100 100 100 100 100 100 100 100 100 100 100 100 100 100

GFSNIL_prec_cloud_135.txt.gz
Cloud_Cover
13 21 46 75 100 100 100 100 100 100 100 100 100 100 100 100 100 100 100 100 100 100
42 57 90 98 96 100 100 100 100 100 100 100 100 100 100 100 100 100 100 100 100 100
60 80 87 100 100 100 100 100 100 100 100 100 100 100 100 100 100 100 100 100 100 100
67 88 90 100 100 100 100 100 100 100 100 100 100 100 100 100 100 100 100 100 100 100
66 100 100 100 100 100 100 100 100 100 100 100 100 100 100 100 100 100 100 100 100 100
5 5 49 98 100 100 100 100 100 100 100 100 100 100 100 100 100 100 100 100 100 100
5 6 84 98 99 100 100 100 100 100 100 100 100 100 100 100 100 100 100 100 100 100
5 5 74 91 88 100 100 100 100 100 98 98 100 100 100 100 100 100 100 100 100 100
52 73 77 98 100 100 100 100 100 100 100 100 85 98 100 100 100 100 100 100 100 100
70 77 82 100 100 100 100 100 100 100 100 100 88 83 100 96 100 100 99 100 100 100
80 66 84 100 100 100 100 100 100 99 100 100 100 95 100 100 100 100 100 100 100 100
80 78 95 100 100 100 100 100 100 100 100 100 96 100 100 100 100 100 100 100 100 100
100 100 100 100 100 100 100 100 100 100 92 100 100 100 100 100 100 100 100 100 100 100
100 100 100 100 100 100 100 100 100 100 93 100 100 100 100 100 100 100 100 100 100 100

GFSNIL_prec_cloud_138.txt.gz
Cloud_Cover
5 5 6 37 55 41 100 100 100 100 100 100 100 100 100 100 100 100 100 100 100 100
93 10 18 27 55 98 100 98 100 100 100 100 100 100 100 100 100 100 100 100 100 100
43 75 76 87 100 100 100 100 100 89 88 98 63 84 100 100 100 100 100 100 100 100
100 100 100 100 100 100 100 100 100 100 100 100 100 92 99 100 100 100 100 100 100 100
8 19 23 100 96 89 100 100 100 87 100 100 100 100 90 100 100 100 100 100 100 100
5 5 5 5 5 14 99 100 100 99 100 99 98 100 89 100 100 100 100 100 100 100
5 5 5 5 5 26 83 99 100 87 100 100 85 94 100 98 99 100 97 99 100 100
10 5 5 5 56 82 97 100 100 100 98 100 89 77 100 100 100 94 95 91 96 100
71 6 6 45 21 90 99 100 100 100 100 100 100 100 98 96 95 92 93 100 100 100
5 5 5 14 5 69 100 100 100 100 100 100 100 100 100 82 98 91 97 100 100 100
5 5 5 15 77 99 100 100 100 100 100 100 100 92 92 100 100 100 100 100 100 100
5 5 5 86 100 100 100 100 100 100 100 100 100 100 100 100 100 100 100 100 100 100
62 81 85 92 100 100 100 100 100 100 100 100 100 98 100 100 100 100 100 100 100 100
100 100 98 100 100 100 100 100 100 100 100 100 100 100 100 100 100 100 100 100 100 100